Вернуться в каталог

TOM-1

АктивенНаукаSSO
NORAD 69872·PAYLOAD·🇹🇼 Taiwan

Запущен Jul 7, 2026 с Vandenberg Space Force Base

Loading…

Ближайшие Пролёты (ближайшие 24 часа)

TLE

СвежийSource: Space-Track

Эпоха: Sep 13, 2026, 16:07 UTC

1 69872U 26156D   26256.67166233  .00000983  00000-0  10553-3 0  9994
2 69872  97.7435 155.8593 0002183 228.7435 131.3595 14.90811331 10188

Отслеживайте TOM-1 в реальном времени с AllMySat

Download on the App Store